Flag for Philippines Weather past 2 weeks in Makati, Philippines

Now
86 °F

Partly sunny.


Feels Like: 91 °F
Forecast: 78 / 94 °F
Wind: 10 mph from Southeast

Location: National Airport


UV Index: 7 (High)

Visibility: N/A


Pressure: 29.80 "Hg

Humidity: 59%

Dew point: 70 °F

Location of MakatiLocation

Historic Weather in Makati

°F

Makati temperature yesterday

Maximum temperature yesterday: 91 °F (at 11:00 AM)
Minimum temperature yesterday: 81 °F (at 2:00 AM)
Average temperature yesterday: 85 °F

Past Weeks' High & Low Weather Summary

 TemperatureHumidityPressure
High95 °F (Apr 2, 1:00 PM)94% (Apr 2, 3:00 AM)29.98 "Hg (Apr 2, 3:00 AM)
Low77 °F (Apr 4, 2:00 PM)34% (Apr 3, 3:00 PM)29.65 "Hg (Apr 6, 10:00 PM)
Average85 °F62%29.85 "Hg
* Reported Apr 1 5:00 PM — Apr 16 5:00 PM, Makati, Weather by CustomWeather, © 2014

Note: Actual official high and low records may vary slightly from our data, if they occured in-between our weather recording intervals... More about our weather records

Advertising

Historic Weather Conditions — Data for Previous 24 hours

 ConditionsComfort  
Time TempWeatherWind HumidityBarometerVisibility
5:00 PM
Apr 16
88 °FBroken clouds.9 mph52%29.77 "HgN/A
4:00 PM88 °FBroken clouds.9 mph52%29.77 "HgN/A
3:00 PM88 °FBroken clouds.9 mph55%29.77 "HgN/A
2:00 PM90 °FBroken clouds.9 mph49%29.80 "HgN/A
1:00 PM88 °FMore clouds than sun.9 mph55%29.83 "HgN/A
12:00 PM88 °FPartly sunny.12 mph52%29.86 "HgN/A
11:00 AM88 °FPartly sunny.12 mph49%29.89 "HgN/A
10:00 AM88 °FBroken clouds.9 mph52%29.89 "HgN/A
9:00 AM86 °FBroken clouds.9 mph55%29.89 "HgN/A
7:00 AM81 °FPartly sunny.7 mph70%29.86 "HgN/A
6:00 AM79 °FPartly sunny.3 mph74%29.83 "HgN/A
5:00 AM79 °FPassing clouds.3 mph70%29.80 "HgN/A
3:00 AM81 °FPassing clouds.5 mph70%29.80 "HgN/A
2:00 AM81 °FPassing clouds.7 mph70%29.83 "HgN/A
1:00 AM81 °FPassing clouds.8 mph70%29.83 "HgN/A
12:00 AM82 °FPassing clouds.9 mph66%29.86 "HgN/A
11:00 PM
Apr 15
82 °FPassing clouds.9 mph62%29.89 "HgN/A
10:00 PM82 °FPassing clouds.7 mph58%29.89 "HgN/A
9:00 PM82 °FPassing clouds.7 mph58%29.86 "HgN/A
8:00 PM82 °FPassing clouds.7 mph58%29.86 "HgN/A
7:00 PM84 °FPartly cloudy.5 mph48%29.83 "HgN/A
6:00 PM86 °FBroken clouds.8 mph43%29.83 "HgN/A
Weather by CustomWeather, © 2014

See weather overview